www.pogodaiklimat.ru
ПОГОДА в Онтарио
Время
и дата
10:53 26.05
11:53 26.05
12:53 26.05
13:53 26.05
14:53 26.05
15:53 26.05
16:53 26.05
17:53 26.05
18:53 26.05
19:53 26.05
20:53 26.05
21:53 26.05
22:53 26.05
23:53 26.05
00:53 27.05
01:53 27.05
02:53 27.05
03:53 27.05
04:53 27.05
05:53 27.05
06:53 27.05
07:53 27.05
08:53 27.05
09:53 27.05
10:53 27.05
11:53 27.05
12:53 27.05
13:53 27.05
14:53 27.05
15:53 27.05
16:53 27.05
17:53 27.05
18:53 27.05
19:53 27.05
20:53 27.05
21:53 27.05
22:53 27.05
23:53 27.05
00:53 28.05
01:53 28.05
02:53 28.05
03:53 28.05
04:53 28.05
05:53 28.05
06:53 28.05
07:53 28.05
08:53 28.05
09:53 28.05
Ветер
(напр.,м/с)
Видим. Явления Облачность Т
(С)
Тd
(С)
f
(%)
Тe
(С)
Тes
(С)
Комфортность P
(гПа)
Po
(гПа)
Тmin
(С)
Tmax
(С)
R
(мм)
R24
(мм)
S
(см)
З 2 16 км ясно +17.8 +1.7 34 +18 +31 опасность
простуды
1018.6 940.8 +8.3 +17.8
нст 2 16 км ясно +19.4 +2.8 33 +20 +36 опасность
простуды
1018.5 940.8
нст 2 16 км ясно +20.6 +2.8 31 +22 +40 комфорт 1018.4 940.5
16 км ясно +21.7 +2.8 29 +22 +47 комфорт 1017.9 940.1
нст 3 16 км ясно +22.8 +2.8 27 +22 +37 комфорт 1017.7 940.1
СВ 3 16 км ясно +23.3 +2.8 26 +23 +35 комфорт 1017.3 939.8
штиль 0 16 км ясно +23.9 +2.2 24 +23 +38 комфорт 1016.8 939.2 +17.2 +24.4
нст 2 16 км ясно +23.9 +2.2 24 +23 +30 комфорт 1016.6 939.2
нст 2 16 км ясно +23.9 +2.8 25 +23 +27 комфорт 1016.5 938.9
СВ 2 16 км ясно +22.2 +3.9 30 +22 +23 комфорт 1016.5 939.2
З 2 16 км ясно +17.2 +5.0 44 +18 +18 1017.0 939.5
СЗ 2 16 км ясно +14.4 +4.4 51 +14 +14 1017.8 940.1
штиль 0 16 км ясно +12.8 +5.6 62 +13 +13 1018.1 940.5 +12.8 +24.4
З 2 16 км ясно +12.2 +5.0 61 +11 +11 1018.2 940.5
З 3 16 км ясно +10.0 +3.9 66 +8 +8 1018.3 940.5
З 2 16 км ясно +10.0 +4.4 68 +9 +9 1018.4 940.8
З 3 16 км ясно +9.4 +3.9 68 +7 +7 1018.8 941.1
З 2 16 км ясно +8.9 +3.9 71 +7 +7 1019.2 941.4
З 2 16 км ясно +7.8 +3.3 73 +6 +6 1019.5 941.7 +7.8 +13.3
штиль 0 16 км н/о +7.8 +3.9 76 +7 +7 1020.0 942.0
З 2 16 км ясно +10.6 +5.0 68 +9 +10 1020.5 942.6
штиль 0 16 км ясно +14.4 +6.1 57 +14 +17 1020.6 943.0
штиль 0 16 км ясно +16.7 +6.7 52 +17 +23 1020.8 943.0
штиль 0 16 км ясно +20.0 +5.0 37 +20 +32 1020.5 942.6
В 2 16 км ясно +22.2 +5.0 33 +23 +35 комфорт 1020.2 942.3 +7.2 +22.2
Ю 2 16 км ясно +23.9 +6.1 32 +24 +40 комфорт 1019.3 941.7
штиль 0 16 км ясно +26.1 +5.0 26 +25 +50 комфорт 1018.5 941.1
ЮВ 3 16 км ясно +27.8 +5.0 23 +27 +42 жарко 1017.4 940.1
ЮВ 3 16 км ясно +28.9 +5.0 22 +27 +42 жарко 1016.7 939.5
В 4 16 км ясно +29.4 +3.3 19 +27 +37 жарко 1016.0 938.9
нст 2 16 км ясно +29.4 +2.8 18 +27 +38 жарко 1015.4 938.3 +22.2 +30.0
нст 2 16 км ясно +30.0 +0.6 15 +27 +34 жарко 1014.7 937.6
С 3 11 км ясно +28.9 +2.2 18 +27 +30 жарко 1014.3 937.3
СВ 2 16 км ясно +26.7 +3.9 23 +25 +27 комфорт 1013.7 937.0
штиль 0 16 км ясно +22.2 +4.4 31 +22 +22 комфорт 1013.9 937.0
штиль 0 16 км ясно +20.0 +5.0 37 +20 +20 1014.0 937.0
штиль 0 16 км ясно +18.3 +5.0 41 +18 +18 1013.9 937.0 +17.8 +30.0
З 3 16 км ясно +15.0 +6.1 55 +14 +14 1014.2 937.3
З 3 16 км ясно +15.0 +5.0 51 +14 +14 1014.0 937.3
З 2 16 км ясно +13.3 +5.0 57 +13 +13 1013.5 936.7
З 3 16 км ясно +11.1 +5.0 66 +9 +9 1013.6 936.7
штиль 0 16 км ясно +11.1 +4.4 63 +11 +11 1013.3 936.7
штиль 0 16 км ясно +10.0 +4.4 68 +10 +10 1013.3 936.4 +10.0 +18.3
З 2 16 км ясно +10.0 +5.0 71 +9 +9 1013.3 936.4
З 2 16 км ясно +12.8 +5.6 62 +12 +12 1013.5 937.0
штиль 0 16 км ясно +17.2 +6.7 50 +17 +20 1013.5 937.0
штиль 0 16 км ясно +20.6 +5.0 36 +21 +28 комфорт 1013.3 936.7
ЮВ 4 16 км ясно +22.8 +6.7 35 +23 +29 комфорт 1012.5 936.1
Местоположение метеостанции Ontario Municipal Airport: широта 44.0194 долгота -117.0097 высота над уровнем моря 667 м.
В архиве по умолчанию представлена погода в Онтарио за последние 1-2 суток. Обновление информации о фактической погоде в базе происходит ежечасно! Архивные данные за месяц целиком и за предыдущие месяцы Вы можете получить, выбрав интересующий диапазон дат из раскрывающегося списка и нажав кнопку "Ввод!".
Внимание! Архив погоды МЕТАР в базе сайта по станциям, не включенным в климатический монитор, хранится не более 60 дней. Нет смысла пытаться выбрать более раннюю дату.
*Определитесь, кто Вы:
Внимание! Время в таблицах - местное (без учета летнего времени). Для получения всемирного времени необходимо вычесть поправку, которая равна -7 ч.
Смотрите также архив погоды в соседних городах и на ближайших метеорологических станциях:
Партнеры нашего сайта:      
Пояснения к столбцам:
  • Ветер - указаны скорость ветра в м/с - средняя за 10 мин, порывы в срок и между сроками (в фигурных скобках) и направление, откуда дует ветер: С - северный,
  • СВ - северо-восточный, В - восточный, ЮВ - юго-восточный, Ю - южный, ЮЗ - юго-западный, З - западный, СЗ - северо-западный.
  • Видимость - горизонтальная дальность видимости в метрах или километрах. При видимости от 1 до 10 км при отсутствии осадков обычно наблюдается дымка, при ухудшении видимости до 1 км и менее - туман. В сухую погоду видимость может ухудшаться дымом, пылью или мглою.
  • Явления - указаны атмосферные явления, наблюдавшиеся в срок или в последний час перед сроком; фигурными скобками обозначены явления, наблюдавшиеся между сроками (за 1-3 часа до срока); квадратными скобками обозначены град или гололедные отложения с указанием их диаметра в мм.
  • Облачность - указаны через наклонную черту общая и нижняя облачность в баллах и высота нижней границы облаков в метрах; квадратными скобками обозначены формы облаков: Ci - перистые, Cs - перисто-слоистые, Cc - перисто-кучевые, Ac - высококучевые, As - высокослоистые, Sc - слоисто-кучевые, Ns - слоисто-дождевые, Cu - кучевые, Cb - кучево-дождевые. Подробнее классификацию облаков см. в Атласе облаков (PDF).
  • T - Температура воздуха - температура, измеренная на высоте 2 м над землей.
  • Td - Температура точки росы - температура, при понижении до которой содержащийся в воздухе водяной пар достигнет насыщения.
  • f - Относительная влажность воздуха - влажноcть воздуха, измеренная на высоте 2 м над землей.
  • Te - Эффективная температура - температура, которую ощущает одетый по сезону человек в тени. Характеристика душности погоды. При расчете учитывается влияние влажности воздуха и скорости ветра на теплоощущения человека.
  • Tes - Эффективная температура на солнце - температура, которую ощущает человек, с поправкой на солнечный нагрев. Характеристика знойности погоды. Зависит от высоты солнца над горизонтом, облачности и скорости ветра. Ночью, в пасмурную погоду, а также при ветре 12 м/с и более поправка равна нулю.
  • P - Атмосферное давление - приведенное к уровню моря атмосферное давление.
  • Po - Атмосферное давление - измеренное на уровне метеостанции атмосферное давление.
  • Tmin - Минимальная температура - минимум температуры воздуха на высоте 2 м над землей.
  • Tmax - Максимальная температура - максимум температуры воздуха на высоте 2 м над землей.
  • R - Количество осадков - Количество выпавших осадков за период времени, мм. При наведении курсора мыши на число - период времени, за который выпало указанное количество осадков.
  • R24 - Количество осадков - Количество выпавших осадков за 24 часа, мм.
  • S - Снежный покров - Высота снежного покрова, см. При наведении курсора мыши на число - состояние снежного покрова и степень покрытия местности в баллах.